Location: The Saddle
(36.8333°N, 80.3417°W)
Time: 08:47:28
(UTC-05:00)

S-56A Canister/Altair - Pass Details

Date: 13 December 2023
Orbit: 640 x 2488 km, 38.9° (Epoch: 25 February)

Event Time Altitude Azimuth Distance (km) Brightness Sun altitude
Rises 16:12:53 0° 266° (W) 2,955 11.6 8.0°
Maximum altitude 16:18:09 10° 215° (SW) 2,228 11.6 7.2°
Drops below altitude 10° 16:18:33 10° 210° (SSW) 2,254 11.4 7.1°
Sets 16:24:19 0° 166° (SSE) 3,584 11.3 6.2°
